STARLINK-34095, 63809

Orbit data source: Space-Track

STARLINK-34095, 63809 is a payload satellite owned by SpaceX/Seattle (US) in LEO that was launched on Sun, 04 May 2025 UTC via an FALCON 9 launch vehicle from the Air Force Eastern Test Range (AFETR). Payload-class satellites include a variety of spacecraft equipped with specific instruments for various scientific and technological missions. These include communications satellites like Starlink; space stations such as the ISS; scientific satellites like the Hubble; Earth observation satellites from companies like Planet Labs, Umbra, and HawkEye 360; GPS; miniature CubeSats for education and research; and military/defense satellites.

Loading next visibility...
Identifier
63809, 2025-092F
Orbit
LEO
Last TLE update
15 hours ago
Origin
Manufacturer
SpaceX/Seattle
Mission
Operational spacecraft
Bus & Motor
STARLINK V2MO, Unknown motor
Mass
575 kg wet, ~530 kg dry
Launch date (UTC)
2025-05-04 (1 week ago)
Launch vehicle
FALCON 9
Launch site
Air Force Eastern Test Range (AFETR)
Object type
Payload
Rocket body
Debris
Shape & HBR
Unknown
Radar Cross Section
Medium (>0.1 m² and <1 m²)

Expand to show TLE details & history

TLE from 15 hours ago
0 STARLINK-34095
1 63809U 25092F   25132.91668981 -.00878484  00000-0 -32703-2 0  9993
2 63809  43.0006  80.1820 0001518 256.1752  46.2761 15.89029837  2519
Epoch: 2025-05-12T22:00Z
Definitive object data (Epoch: 2025-05-12T22:00:01.999Z)
Latitude
-35.30884°
Longitude
-169.79419°
Altitude
314.39 km
Speed
7.72 km/s
True Right ascension
02h 04m 32s
True Declination
-35° 08' 10"
Sunlit
Object was in daylight at TLE epoch
Visualization TLE readout
Latitude
-43.15997°
Longitude
146.12346°
Altitude
320.445 km
Speed
7.717 km/s
Apparent Right ascension
04h 16m 10s
Apparent Declination
-75° 32' 18"
Sunlit
Object is in daylight
Visualization observer readout
Local Sidereal Time
21:23:06
Azimuth
161° S
Elevation
-41.705°
Doppler factor
1
Orbital elements
Apogee altitude
308.013 km
Perigee altitude
305.984 km
Semi-major axis
6,685.135 km
Eccentricity
0.0001518
Inclination
43.0006°
RAAN
80.182°
Arg. of periapsis
256.1752°
True anomaly
46.28867°
Mean anomaly
46.2761°
Eccentric anomaly
46.28239°
Mean motion
3.9708 °/min
BSTAR
-0.0032703
Orbital period
90.66 mins
Loading maneuver chart data...
Loading SW <> Apogee altitude chart data...
Loading historical data...
Loading historical data...
Loading historical data...
Loading historical data...
Loading historical data...
Loading historical data...
Loading historical data...

STARLINK-34095 Visibility forecast

Observer location: undefined°, undefined°

Span
Click to sort rows by Start time (UTC) header in descending order
Start Az.
Max El. time (UTC)
Max El. Az.
Max El.
End time (UTC)
End Az.
4 mins2025-05-14 00:08:26.100Z231.676° WSW2025-05-14 00:10:26.100Z155.178° SSE38.681°2025-05-14 00:12:26.100Z81.136° E
4 mins2025-05-14 03:19:26.100Z301.835° NW2025-05-14 03:20:26.100Z332.52° NNW34.414°2025-05-14 03:23:26.100Z88.236° E
|